Weather History for KFLD - January, 2013

Change the Weather History Date:

Thursday, January 24, 2013

  Actual Average Record
Temperature  
Mean Temperature 4 °F -  
Max Temperature 14 °F 27 °F 49 °F (1967)
Min Temperature -4 °F 12 °F -15 °F (1952)
Degree Days  
Heating Degree Days 61    
Moisture  
Dew Point -1 °F    
Average Humidity 71    
Maximum Humidity 85    
Minimum Humidity 60    
Precipitation  
Precipitation 0.00 in - - ()
Sea Level Pressure  
Sea Level Pressure 30.52 in    
Wind  
Wind Speed 7 mph (NE)    
Max Wind Speed 14 mph    
Max Gust Speed -    
Visibility 8 miles    
Events Snow    
Averages and records for this station are not official NWS values.
T = Trace of Precipitation, MM = Missing Value Source: NWS Daily Summary

Daily Weather History Graph

Daily Weather History Graph

Search for Another Location

Airport or City:

Trip Planner

Search our weather history database for the weather conditions in past years. The results will help you decide how hot, cold, wet, or windy it might be!

Date:

Astronomy

Jan. 24, 2013 Rise Set
Actual Time 7:18 AM CST 4:54 PM CST
Civil Twilight 6:47 AM CST 5:25 PM CST
Nautical Twilight 6:12 AM CST 6:00 PM CST
Astronomical Twilight 5:38 AM CST 6:34 PM CST
Moon 2:55 PM CST (1/24) 5:17 AM CST (1/24)
Length of Visible Light 10h 38m
Length of Day
9h 36m
Waxing Gibbous, 94% of the Moon is Illuminated
Jan 24
Waxing Gibbous
Jan 26
Full
Feb 3
Last Quarter
Feb 10
New
Feb 17
First Quarter

Hourly Weather History & Observations

Time (CST) Temp. Windchill Dew Point Humidity Pressure Visibility Wind Dir Wind Speed Gust Speed Precip Events Conditions
12:53 AM 1.9 °F -16.2 °F -7.1 °F 66% 30.48 in 10.0 mi NW 13.8 mph - N/A   Clear
1:53 AM 1.0 °F -15.8 °F -8.0 °F 66% 30.52 in 10.0 mi NW 11.5 mph - N/A   Clear
2:53 AM -0.0 °F -15.3 °F -9.0 °F 66% 30.55 in 10.0 mi NNW 9.2 mph - N/A   Clear
3:53 AM -2.9 °F -15.0 °F -9.9 °F 72% 30.59 in 10.0 mi WNW 5.8 mph - N/A   Clear
4:53 AM -4.0 °F -19.0 °F -11.0 °F 72% 30.60 in 10.0 mi NNW 8.1 mph - N/A   Clear
6:53 AM -4.0 °F -16.3 °F -9.9 °F 76% 30.66 in 10.0 mi NW 5.8 mph - N/A   Clear
7:53 AM -2.0 °F -13.9 °F -9.9 °F 69% 30.68 in 10.0 mi NW 5.8 mph - N/A   Clear
8:53 AM 1.0 °F -12.9 °F -8.0 °F 66% 30.70 in 10.0 mi NNW 8.1 mph - N/A   Clear
9:53 AM 3.0 °F -9.3 °F -7.1 °F 63% 30.69 in 10.0 mi NNE 6.9 mph - N/A   Clear
10:53 AM 5.0 °F -9.1 °F -6.0 °F 61% 30.68 in 10.0 mi NNE 9.2 mph - N/A   Clear
11:53 AM 6.1 °F -2.8 °F -5.1 °F 60% 30.67 in 10.0 mi NNE 4.6 mph - N/A   Clear
12:53 PM 8.1 °F - -2.9 °F 61% 30.63 in 10.0 mi Calm Calm - N/A   Clear
1:53 PM 9.0 °F - -2.0 °F 61% 30.61 in 10.0 mi Calm Calm - N/A   Clear
2:53 PM 9.0 °F - -2.0 °F 61% 30.60 in 10.0 mi Calm Calm - N/A   Clear
3:53 PM 10.0 °F - -0.9 °F 61% 30.59 in 10.0 mi Calm Calm - N/A   Clear
4:53 PM 9.0 °F 2.4 °F -0.0 °F 67% 30.57 in 10.0 mi ENE 3.5 mph - N/A   Clear
5:53 PM 10.0 °F - 1.0 °F 67% 30.55 in 10.0 mi Calm Calm - N/A   Clear
6:53 PM 10.0 °F - 1.9 °F 70% 30.51 in 10.0 mi Calm Calm - N/A   Overcast
7:53 PM 10.9 °F 4.7 °F 3.0 °F 70% 30.48 in 10.0 mi SSE 3.5 mph - N/A   Overcast
8:53 PM 12.0 °F - 3.0 °F 67% 30.47 in 10.0 mi Calm Calm - N/A   Overcast
9:53 PM 12.9 °F 5.2 °F 3.9 °F 67% 30.43 in 10.0 mi SSE 4.6 mph - N/A   Overcast
10:10 PM 12.2 °F - 5.0 °F 73% 30.38 in 2.5 mi Calm Calm - 0.00 in Snow Light Snow
10:16 PM 12.2 °F - 6.8 °F 79% 30.38 in 1.5 mi Calm Calm - 0.00 in Snow Light Snow
10:34 PM 12.2 °F 4.3 °F 6.8 °F 79% 30.38 in 2.0 mi SSE 4.6 mph - 0.00 in Snow Light Snow
10:53 PM 12.9 °F 3.8 °F 8.1 °F 81% 30.43 in 1.8 mi SSE 5.8 mph - 0.00 in Snow Light Snow
11:00 PM 12.2 °F 2.9 °F 8.6 °F 85% 30.37 in 1.0 mi SSE 5.8 mph - 0.00 in Snow Light Snow
11:07 PM 12.2 °F 2.9 °F 8.6 °F 85% 30.36 in 1.0 mi SE 5.8 mph - 0.00 in Snow Light Snow
11:15 PM 12.2 °F 2.9 °F 8.6 °F 85% 30.36 in 2.0 mi SE 5.8 mph - 0.00 in Snow Light Snow
11:23 PM 12.2 °F 2.9 °F 8.6 °F 85% 30.35 in 9.0 mi SE 5.8 mph - 0.00 in Snow Light Snow
11:53 PM 14.0 °F 3.9 °F 9.0 °F 80% 30.38 in 10.0 mi SSE 6.9 mph - 0.00 in   Overcast